Location: Newark
(60.1788°N, 24.7987°E)
Time: 13:30:22
(UTC+00:00)

Envisat - Visible Passes

Search period start: 15 October 2019 00:00
Search period end: 25 October 2019 00:00
Orbit: 764 x 766 km, 98.1° (Epoch: 15 October)

Date Brightness Start Highest point End Pass type
(mag) Time Alt. Az. Time Alt. Az. Time Alt. Az.
15 Oct 5.9 04:17:01 10° NE 04:21:02 23° E 04:25:03 10° SE visible
15 Oct 5.2 17:21:19 10° SSW 17:25:38 27° W 17:29:59 10° NNW visible
16 Oct 6.3 03:41:13 10° NE 03:43:41 13° E 03:46:09 10° ESE visible
16 Oct 4.2 16:43:38 10° S 16:48:32 46° W 16:53:27 10° NNW visible
16 Oct 6.3 18:27:41 10° W 18:28:54 11° WNW 18:30:08 10° WNW visible
17 Oct 3.2 16:06:30 10° SSE 16:11:37 79° WSW 16:16:44 10° NNW visible
17 Oct 5.8 17:47:54 10° SW 17:51:29 19° W 17:55:05 10° NW visible
18 Oct 6.0 04:05:56 10° NE 04:09:37 20° E 04:13:18 10° SE visible
18 Oct 4.9 17:09:43 10° SSW 17:14:15 32° W 17:18:49 10° NNW visible
19 Oct 6.5 03:30:38 10° ENE 03:32:12 11° ENE 03:33:46 10° E visible
19 Oct 3.8 16:32:13 10° S 16:37:12 54° W 16:42:13 10° NNW visible
19 Oct 6.1 18:15:09 10° WSW 18:17:26 13° WNW 18:19:43 10° NW visible
20 Oct 3.0 15:55:14 10° SSE 16:00:20 89° ENE 16:05:28 10° NNW visible
20 Oct 5.5 17:36:08 10° SW 17:40:03 22° W 17:44:01 10° NW visible
21 Oct 6.1 03:54:55 10° NE 03:58:11 17° E 04:01:27 10° ESE visible
21 Oct 4.6 16:58:11 10° SSW 17:02:53 37° W 17:07:37 10° NNW visible
22 Oct 3.5 16:20:50 10° S 16:25:53 64° WSW 16:30:59 10° NNW visible
22 Oct 6.0 18:03:02 10° WSW 18:05:58 15° W 18:08:55 10° NW visible
23 Oct 5.7 04:19:56 10° NE 04:24:04 24° E 04:28:12 10° SE visible
23 Oct 3.0 15:43:59 10° SSE 15:49:04 77° ENE 15:54:11 10° NNW visible
23 Oct 5.3 17:24:26 10° SW 17:28:39 26° W 17:32:54 10° NNW visible
24 Oct 6.2 03:44:00 10° NE 03:46:44 14° E 03:49:28 10° ESE visible
24 Oct 4.3 16:46:41 10° S 16:51:32 43° W 16:56:25 10° NNW visible
